Regional Weather Roundup
Issued by NWS Wakefield, VA

Home | Current Version | Previous Version | Graphics & Text | Print | Product List | Glossary On
Versions: 1 2 3 4 5 6 7 8 9 10 11 12 13 14 15 16 17 18 19 20 21 22 23 24 25 26 27 28 29 30 31 32 33 34 35 36 37 38 39 40 41 42 43 44 45 46 47 48 49 50
000
ASUS41 KAKQ 210510
RWRAKQ

REGIONAL WEATHER ROUNDUP
NATIONAL WEATHER SERVICE WAKEFIELD VA
1200 AM EST SUN DEC 21 2014

Note: "fair" indicates few or no clouds below 12,000 feet with no
significant weather and/or obstructions to visibility. * = Denotes
station may not report precipitation (e.g., rain,snow,etc.),
thunder or fog.

VAZ042-051-052>054-056-210600-
NORTHERN VIRGINIA

CITY           SKY/WX    TMP DP  RH WIND       PRES   REMARKS
WASH NATIONAL  MOCLDY    36  20  52 NW5       30.31S
DULLES         CLOUDY    31  25  78 CALM      30.30S
FORT BELVOIR   CLOUDY    29  24  81 CALM      30.31S
QUANTICO       CLOUDY    32  25  75 NW5       30.32S
FREDERICKSBRG* CLOUDY    34  28  76 CALM      30.30S
STAFFORD*      CLOUDY    32  26  80 CALM      30.34S
WARRENTON      CLOUDY    32  32  99 CALM      30.29S
CULPEPER*      CLOUDY    32  28  86 CALM      30.29F
MANASSAS*      CLOUDY    32  28  86 CALM      30.31R
LEESBURG*      CLOUDY    32  30  93 CALM      30.30S
WINCHESTER     CLOUDY    32  21  64 CALM      30.26F
FRONT ROYAL*   CLOUDY    32  25  74 CALM      30.26S
LURAY*         CLOUDY    32  28  86 CALM      30.25F
$$

VAZ048-049-060>072-079>083-210600-
CENTRAL AND SOUTH CENTRAL VIRGINIA

CITY           SKY/WX    TMP DP  RH WIND       PRES   REMARKS
RICHMOND       CLOUDY    36  24  62 CALM      30.30S
CHESTERFIELD*  CLOUDY    36  16  44 CALM      30.31S
PETERSBURG*    CLOUDY    34  31  88 CALM      30.31S
HANOVER        CLOUDY    33  27  78 CALM      30.31F
TAPPAHANNOCK*  CLOUDY    33  27  79 CALM      30.31S
QUINTON*       CLOUDY    34  27  76 S6        30.30S
CHARLOTTSVILLE CLOUDY    33  25  72 CALM      30.26F
GORDONSVILLE*  CLOUDY    32  28  84 CALM      30.28S
ORANGE*        CLOUDY    34  30  86 CALM      30.29F
LOUISA*        CLOUDY    34  27  75 CALM      30.27S
BUMPASS*       CLOUDY    33  24  71 CALM      30.28F
FARMVILLE*     CLOUDY    37  27  69 CALM      30.27S
CREWE*         CLOUDY    33  28  80 CALM      30.28S
FORT PICKETT*  CLOUDY    34  27  74 CALM      30.28F
CHASE CITY*    CLOUDY    37  35  93 CALM      30.28S
CLARKSVILLE*   CLOUDY    34  32  93 CALM      30.27F
SOUTH HILL*    CLOUDY    33  31  90 CALM      30.34S
LAWRENCEVILLE* CLOUDY    34  31  90 CALM      30.28S
EMPORIA*       CLOUDY    32  32 100 CALM      30.30F
$$

VAZ088>098-210600-
SOUTHEAST VIRGINIA

CITY           SKY/WX    TMP DP  RH WIND       PRES   REMARKS
NORFOLK        CLEAR     33  28  81 CALM      30.29S
VIRGINIA BEACH PTCLDY    31  27  85 CALM      30.28F
NORFOLK NAVAL  PTCLDY    37  28  70 CALM      30.30F
WEST POINT*    CLOUDY    36  27  70 CALM      30.32S
SALUDA*        CLOUDY    33  28  83 CALM      30.30S
NEWPORT NEWS   CLOUDY    32  27  81 CALM      30.30F
LANGLEY AFB    CLEAR     30  27  88 W2        30.30F
FORT EUSTIS    CLOUDY    32  28  83 CALM      30.28F
WILLIAMSBURG*  CLOUDY    37  30  75 CALM      30.31S
HR EXEC AP*    CLOUDY    30  28  93 CALM      30.31F
FRANKLIN*      CLOUDY    30  30 100 CALM      30.30S
WAKEFIELD      CLOUDY    30  27  88 CALM      30.30F
$$

VAZ020-022-025-037-045-210600-
WEST CENTRAL AND SOUTHWEST VIRGINIA

CITY           SKY/WX    TMP DP  RH WIND       PRES   REMARKS
STAUNTON*      CLOUDY    32  26  77 CALM      30.25S
WAYNESBORO*    CLOUDY    32  26  77 CALM      30.22S
HOT SPRINGS VA CLOUDY    30  30  99 W9        30.10S
LYNCHBURG      CLOUDY    33  29  85 CALM      30.27S
DANVILLE       CLOUDY    37  32  82 CALM      30.28S
SOUTH BOSTON*  CLOUDY    35  32  88 CALM      30.28S
MARTINSVILLE   CLOUDY    37  32  83 CALM      30.28S
ROANOKE        CLOUDY    35  26  69 SE3       30.25F
BLACKSBURG     CLOUDY    34  31  92 CALM      30.22F
DUBLIN*        CLOUDY    36  35  98 CALM      30.21S FOG
MARION*        DRIZZLE   37  35  94 CALM      30.21S
HILLSVILLE*    CLOUDY    34  31  89 CALM      30.18S
RICHLANDS*     CLOUDY    33  31  92 CALM      30.19S
WISE*          CLOUDY    34  30  86 N3        30.19F
ABINGDON*      CLOUDY    39  38  94 CALM      30.20F
$$

MDZ021>025-VAZ099-100-210600-
SOUTHERN MARYLAND AND THE DELMARVA PENINSULA

CITY           SKY/WX    TMP DP  RH WIND       PRES   REMARKS
PATUXENT RIVER PTCLDY    25  21  85 SW5       30.30S
BAY BRIDGE APT   N/A     34  27  75 CALM      30.31S
LEONARDTOWN    CLOUDY    28  23  80 CALM      30.31F
DOVER          CLOUDY    31  27  88 CALM      30.28F
GEORGETOWN     CLOUDY    30  25  81 CALM      30.30F
EASTON         PTCLDY    32  28  86 CALM      30.33F
CAMBRIDGE      PTCLDY    32  28  86 CALM      30.30S
SALISBURY      CLEAR     28  23  81 CALM      30.30S
OCEAN CITY     PTCLDY    24  23  96 NW5       30.30S
WALLOPS ISLAND CLOUDY    30  26  85 CALM      30.30F
ACCOMACK*      CLOUDY    30  27  86 CALM      30.30S
$$

NCZ012>017-030>032-210600-
NORTH CENTRAL AND EASTERN NORTH CAROLINA

CITY           SKY/WX    TMP DP  RH WIND       PRES   REMARKS
ROANOKE RAPIDS CLEAR     30  30 100 CALM      30.29S
RALEIGH        CLOUDY    38  34  85 CALM      30.28S FOG
ELIZABETH CITY CLEAR     39  30  70 N7        30.29S
AHOSKIE*       CLEAR     31  29  94 CALM      30.30S
EDENTON*         N/A     32  31  94 CALM      30.28F
CURRITUCK*     CLEAR     32  30  90 CALM      30.29F
KILL DEVIL HLS CLEAR     40  33  75 N5        30.25F
MANTEO         CLEAR     39  34  81 N3        30.27S
CAPE HATTERAS  CLEAR     42  37  82 NE6       30.25F
TARBORO*       PTCLDY    32  32 100 CALM      30.29F FOG
GOLDSBORO      CLEAR     35  35  98 CALM      30.27S
WASHINGTON     CLOUDY    39  33  81 CALM      30.28S
GREENVILLE     PTCLDY    37  36  93 CALM      30.29R
NEW BERN       CLEAR     38  34  85 N3        30.28F
WILMINGTON     CLOUDY    38  37  97 NE6       30.25F
$$

VAZ048-210600-
ELSEWHERE

CITY           SKY/WX    TMP DP  RH WIND       PRES   REMARKS
HARRISBURG PA  PTCLDY    28  21  75 NW5       30.29S
BALTIMORE      MOCLDY    31  24  75 CALM      30.29F
ANNAPOLIS      PTCLDY    33  27  78 CALM      30.30F
ANDREWS AFB    CLEAR     29  22  76 CALM      30.29S
PHILADELPHIA   CLOUDY    34  23  64 S3        30.31F
HENDERSON NC   CLOUDY    32  31  97 CALM      30.27F FOG
GREENSBORO     CLOUDY    38  34  85 CALM      30.24F
ROCKY MOUNT    CLOUDY    35  33  92 CALM      30.28F FOG
$$

VAZ100-210600-
MARINE

STATION/POSITION TIME  TEMP    WIND        PRES    WAVE   SWELL
                       AIR SEA DIR/SP/G            HT/PER HT/PER
                 (UTC) (F)     (DEG/KT/KT) (MB)    (FT/S) (FT/S)
CAPE MAY NJ      0500   31 43   50/  2/  3 1025.8R
LEWES DE         0500   33 41  270/  1/  2 1025.9S
15NM E FENWICK I 0500   36 45              1025.6F   1/11
OCEAN-CITY-INLET 0500   33 44  340/  2/  3 1025.5F
WACHAPREAGUE VA  0500   30 40     CALM     1026.0R
THOMAS POINT MD  0500   36 40   80/  3/  4 1027.1F
GOOSES REEF MD   0500   36     VRB  4/  6  1025.1R
COVE POINT MD    0500   33     280/  4/  5 1025.9S
SOLOMONS ISLAND  0500      42                N/A
BISHOPS HEAD MD  0500   33 36  360/  3/  4 1025.6F
POTOMAC MD       0500   36      10/  6/  8 1025.1F
CAMBRIDGE MD     0500   33 40   CALM  /  1 1025.9S
LEWISETTA VA     0500   35 41  290/  3/  3 1025.8S
RAPPAHANNOCK LGT 0500           70/  3/  5 1026.4S
STINGRAY PT      0500   37     330/  4/  6 1026.3F
YORK RVR RNG VA  0500   38      10/  5/  6 1025.4S
YORKTOWN VA      0500   37 45   30/  6/  6 1025.8S
JAMESTOWN VA     0500   35      80/  4/  4   N/A
DOMINION TERM VA 0500   37      30/  2/  3 1025.9F
KIPTOPEKE VA     0500      49   70/  4/  5   N/A
CHES BAY BRIDGE  0500   39 46   10/  3/  5 1025.5S
CAPE HENRY VA    0500   38     360/  7/  8 1024.5S
CHESAPEAKE LGHT  0400   39     360/  8/  9 1026.3S
WILLOUBY STN VA  0500   38     330/  6/  6 1026.3S
S CRANEY ISL VA  0500          320/  2/  3 1025.7F
CAPE HENRY BUOY  0500      50                N/A     1/10
1ST LANDING BUOY 0500   39      10/  6/  8 1025.5S
CAPE CHARLES BUO 0500      47                N/A     1/10   2/10
64NM E OF VA BCH 0500   43 54  360/ 10/ 14 1024.5F   2/ 8   2/ 8
DUCK PIER NC     0500   42 46   10/  9/ 10 1024.1F
44100 DUCK FRF   0500      52                N/A     2/ 5
44056 DUCK FRF   0500      46                N/A     2/ 5
OREGON INLET NC  0500   42 48  360/  6/  9 1024.7R
HATTERAS NC      0500   44 50   40/  6/ 12 1024.7F
DIAMOND SHLS NC  0500   49                 1024.2F   3/ 4
CAPE LOOKOUT NC  0400   44      10/ 12/ 15 1024.3F
$$



USA.gov is the U.S. government's official web portal to all federal, state and local government web resources and services.